Flag for South Africa Weather past 2 weeks in Rustenburg, South Africa

Now
55 °F

Refreshingly cool.


Feels Like: 54 °F
Forecast: 47 / 83 °F
Wind: 7 mph from Southeast

Location: Lanseria Civ / Mil

Current Time: Oct 2, 2014 at 2:38:30 AM

Latest Report: Oct 2, 2014 at 2:00 AM


Visibility: N/A

Pressure: 30.24 "Hg

Humidity: 55%

Dew point: 39 °F

Location of RustenburgLocation

Historic Weather in Rustenburg — Graph

°F

Rustenburg temperature yesterday

Maximum temperature yesterday: 79 °F (at 4:00 PM)
Minimum temperature yesterday: 48 °F (at 5:00 AM)
Average temperature yesterday: 62 °F

Past Weeks' High & Low Weather Summary

 TemperatureHumidityPressure
High88 °F (Sep 17, 2:00 PM)88% (Sep 22, 6:00 AM)30.45 "Hg (Sep 22, 6:00 AM)
Low46 °F (Sep 19, 4:00 AM)5% (Sep 30, 2:00 PM)29.98 "Hg (Sep 18, 3:00 PM)
Average68 °F37%30.20 "Hg
* Reported Sep 17 1:00 AM — Oct 2 1:00 AM, Rustenburg, Weather by CustomWeather, © 2014

Note: Actual official high and low records may vary slightly from our data, if they occured in-between our weather recording intervals... More about our weather records

Advertising

Rustenburg weather history for previous 24 hours

 ConditionsComfort  
Time TempWeatherWind HumidityBarometerVisibility
1:00 AM
Oct 2
57 °FRefreshingly cool.10 mph51%30.24 "HgN/A
12:00 AM59 °FRefreshingly cool.10 mph45%30.24 "HgN/A
11:00 PM
Oct 1
63 °FMild.12 mph39%30.24 "HgN/A
10:00 PM66 °FPassing clouds.12 mph32%30.24 "HgN/A
9:00 PM66 °FClear.6 mph22%30.21 "Hg10 mi
8:00 PM70 °FPassing clouds.5 mph18%30.18 "HgN/A
7:00 PM72 °FClear.No wind15%30.15 "Hg10 mi
6:00 PM77 °FClear.5 mph11%30.15 "Hg10 mi
5:00 PM79 °FSunny.5 mph11%30.12 "Hg10 mi
4:00 PM79 °FSunny.7 mph12%30.12 "Hg10 mi
3:00 PM77 °FSunny.6 mph12%30.12 "Hg10 mi
9:00 AM59 °FSunny.16 mph31%30.21 "Hg10 mi
8:00 AM55 °FPassing clouds.10 mph36%30.21 "HgN/A
7:00 AM52 °FPassing clouds.7 mph41%30.21 "HgN/A
6:00 AM48 °FSunny.7 mph43%30.18 "Hg10 mi
5:00 AM48 °FCool.5 mph40%30.15 "HgN/A
4:00 AM50 °FCool.15 mph37%30.15 "HgN/A
3:00 AM52 °FCool.10 mph32%30.15 "HgN/A
2:00 AM52 °FClear.12 mph30%30.15 "Hg10 mi
Weather by CustomWeather, © 2014

See weather overviewHow to use our weather pages